Eureka, AK

2:38 PM AKDT on March 30, 2017 (GMT -0800)
Skelton

Weather History for PAZK - September, 2012

Change the Weather History Date:

Tuesday, September 25, 2012

  Actual Average Record
Temperature  
Mean Temperature 40 °F -  
Max Temperature 46 °F 36 °F 51 °F (2002)
Min Temperature 35 °F 26 °F 21 °F (2004)
Degree Days  
Heating Degree Days 24    
Moisture  
Dew Point 29 °F    
Average Humidity 68    
Maximum Humidity 81    
Minimum Humidity 50    
Precipitation  
Precipitation 0.00 in - - ()
Sea Level Pressure  
Sea Level Pressure 29.58 in    
Wind  
Wind Speed 9 mph (ENE)    
Max Wind Speed 18 mph    
Max Gust Speed 24 mph    
Visibility 10 miles    
Events      
Averages and records for this station are not official NWS values.
T = Trace of Precipitation, MM = Missing Value Source: NWS Daily Summary

Daily Weather History Graph

Daily Weather History Graph

Search for Another Location

Airport or City:

Trip Planner

Search our weather history database for the weather conditions in past years. The results will help you decide how hot, cold, wet, or windy it might be!

Date:

Astronomy

Sep. 25, 2012 Rise Set
Actual Time 7:41 AM AKDT 7:36 PM AKDT
Civil Twilight 6:57 AM AKDT 8:20 PM AKDT
Nautical Twilight 6:04 AM AKDT 9:13 PM AKDT
Astronomical Twilight 5:07 AM AKDT 10:10 PM AKDT
Moon 6:03 PM AKDT (9/25) 2:03 AM AKDT (9/25)
Length of Visible Light 13h 22m
Length of Day
11h 54m
Waxing Gibbous, 81% of the Moon is Illuminated
Sep 25
Waxing Gibbous
Sep 29
Full
Oct 7
Last Quarter
Oct 15
New
Oct 21
First Quarter

Hourly Weather History & Observations

Time (AKDT) Temp. Windchill Dew Point Humidity Pressure Visibility Wind Dir Wind Speed Gust Speed Precip Events Conditions
12:16 AM 35.6 °F 29.2 °F 30.2 °F 81% 29.80 in 10.0 mi NE 8.1 mph - N/A   Clear
12:36 AM 35.6 °F 29.2 °F 30.2 °F 81% 29.81 in 10.0 mi NE 8.1 mph - N/A   Clear
12:56 AM 37.4 °F 32.1 °F 30.2 °F 75% 29.80 in 10.0 mi NNE 6.9 mph - N/A   Clear
1:16 AM 35.6 °F 31.7 °F 30.2 °F 81% 29.79 in 10.0 mi NNE 4.6 mph - N/A   Clear
1:36 AM 35.6 °F 31.7 °F 30.2 °F 81% 29.79 in 10.0 mi NNE 4.6 mph - N/A   Clear
1:56 AM 35.6 °F 32.8 °F 30.2 °F 81% 29.79 in 10.0 mi NNE 3.5 mph - N/A   Clear
2:16 AM 35.6 °F 29.9 °F 30.2 °F 81% 29.79 in 10.0 mi North 6.9 mph - N/A   Clear
2:36 AM 35.6 °F 29.9 °F 30.2 °F 81% 29.78 in 10.0 mi NE 6.9 mph - N/A   Mostly Cloudy
2:56 AM 35.6 °F 30.7 °F 28.4 °F 75% 29.77 in 10.0 mi NE 5.8 mph - N/A   Mostly Cloudy
3:16 AM 35.6 °F 31.7 °F 30.2 °F 81% 29.77 in 10.0 mi ENE 4.6 mph - N/A   Overcast
3:36 AM 37.4 °F 32.1 °F 28.4 °F 70% 29.77 in 10.0 mi NE 6.9 mph - N/A   Mostly Cloudy
3:56 AM 37.4 °F 32.1 °F 28.4 °F 70% 29.77 in 10.0 mi NE 6.9 mph - N/A   Scattered Clouds
4:16 AM 37.4 °F 30.8 °F 30.2 °F 75% 29.76 in 10.0 mi ENE 9.2 mph - N/A   Mostly Cloudy
4:36 AM 39.2 °F 34.2 °F 26.6 °F 61% 29.76 in 10.0 mi SE 6.9 mph - N/A   Overcast
4:56 AM 39.2 °F 33.6 °F 24.8 °F 56% 29.75 in 10.0 mi SE 8.1 mph - N/A   Overcast
5:16 AM 39.2 °F 34.2 °F 24.8 °F 56% 29.76 in 10.0 mi SE 6.9 mph - N/A   Overcast
5:36 AM 39.2 °F 33.6 °F 26.6 °F 61% 29.75 in 10.0 mi SSE 8.1 mph - N/A   Overcast
5:56 AM 39.2 °F 33.6 °F 26.6 °F 61% 29.74 in 10.0 mi SE 8.1 mph - N/A   Overcast
6:16 AM 39.2 °F 32.0 °F 26.6 °F 61% 29.73 in 10.0 mi ESE 11.5 mph 16.1 mph N/A   Mostly Cloudy
6:36 AM 39.2 °F 34.2 °F 24.8 °F 56% 29.72 in 10.0 mi ESE 6.9 mph - N/A   Mostly Cloudy
6:56 AM 39.2 °F 35.0 °F 24.8 °F 56% 29.71 in 10.0 mi ESE 5.8 mph - N/A   Overcast
7:16 AM 39.2 °F 34.2 °F 24.8 °F 56% 29.70 in 10.0 mi East 6.9 mph - N/A   Overcast
7:36 AM 37.4 °F 32.1 °F 26.6 °F 65% 29.69 in 10.0 mi NE 6.9 mph - N/A   Overcast
7:56 AM 35.6 °F 29.2 °F 26.6 °F 70% 29.68 in 10.0 mi NNE 8.1 mph - N/A   Mostly Cloudy
8:16 AM 35.6 °F 28.6 °F 28.4 °F 75% 29.68 in 10.0 mi NE 9.2 mph - N/A   Partly Cloudy
8:36 AM 37.4 °F 30.8 °F 26.6 °F 65% 29.67 in 10.0 mi ENE 9.2 mph - N/A   Mostly Cloudy
8:56 AM 37.4 °F 30.3 °F 28.4 °F 70% 29.64 in 10.0 mi ENE 10.4 mph - N/A   Scattered Clouds
9:16 AM 37.4 °F 31.4 °F 28.4 °F 70% 29.65 in 10.0 mi ENE 8.1 mph - N/A   Clear
9:36 AM 39.2 °F 32.0 °F 28.4 °F 65% 29.65 in 10.0 mi East 11.5 mph 16.1 mph N/A   Clear
9:56 AM 39.2 °F 33.0 °F 28.4 °F 65% 29.65 in 10.0 mi East 9.2 mph - N/A   Clear
10:16 AM 39.2 °F 31.6 °F 28.4 °F 65% 29.64 in 10.0 mi East 12.7 mph - N/A   Clear
11:16 AM 42.8 °F 36.6 °F 28.4 °F 57% 29.62 in 10.0 mi East 11.5 mph - N/A   Clear
11:36 AM 42.8 °F 35.4 °F 30.2 °F 61% 29.61 in 10.0 mi East 15.0 mph - N/A   Clear
11:56 AM 42.8 °F 36.6 °F 30.2 °F 61% 29.61 in 10.0 mi East 11.5 mph - N/A   Clear
12:16 PM 42.8 °F 36.2 °F 30.2 °F 61% 29.59 in 10.0 mi East 12.7 mph - N/A   Partly Cloudy
12:36 PM 44.6 °F 39.2 °F 30.2 °F 57% 29.58 in 10.0 mi East 10.4 mph - N/A   Clear
12:56 PM 44.6 °F 38.4 °F 28.4 °F 53% 29.57 in 10.0 mi East 12.7 mph 18.4 mph N/A   Partly Cloudy
1:16 PM 44.6 °F 38.1 °F 28.4 °F 53% 29.56 in 10.0 mi East 13.8 mph 20.7 mph N/A   Mostly Cloudy
1:36 PM 44.6 °F 38.1 °F 30.2 °F 57% 29.54 in 10.0 mi East 13.8 mph 23.0 mph N/A   Mostly Cloudy
1:56 PM 46.4 °F 39.8 °F 28.4 °F 50% 29.54 in 10.0 mi ESE 16.1 mph 21.9 mph N/A   Mostly Cloudy
2:16 PM 44.6 °F 37.4 °F 28.4 °F 53% 29.52 in 10.0 mi East 16.1 mph 23.0 mph N/A   Overcast
2:36 PM 44.6 °F 37.8 °F 28.4 °F 53% 29.52 in 10.0 mi East 15.0 mph 24.2 mph N/A   Overcast
2:56 PM 42.8 °F 35.1 °F 30.2 °F 61% 29.52 in 10.0 mi East 16.1 mph 24.2 mph N/A   Overcast
3:16 PM 42.8 °F 35.1 °F 28.4 °F 57% 29.51 in 10.0 mi East 16.1 mph 23.0 mph N/A   Overcast
3:36 PM 42.8 °F 35.1 °F 30.2 °F 61% 29.50 in 10.0 mi East 16.1 mph 21.9 mph N/A   Overcast
3:56 PM 41.0 °F 33.5 °F 30.2 °F 65% 29.49 in 10.0 mi East 13.8 mph 23.0 mph N/A   Overcast
4:16 PM 39.2 °F 29.8 °F 32.0 °F 75% 29.49 in 10.0 mi East 18.4 mph 24.2 mph N/A   Overcast
4:36 PM 39.2 °F 30.2 °F 33.8 °F 81% 29.48 in 10.0 mi East 17.3 mph 21.9 mph N/A   Overcast
4:56 PM 39.2 °F 31.6 °F 32.0 °F 75% 29.47 in 10.0 mi East 12.7 mph 21.9 mph N/A   Overcast
5:16 PM 39.2 °F 31.2 °F 32.0 °F 75% 29.46 in 10.0 mi East 13.8 mph 19.6 mph N/A   Overcast
5:36 PM 39.2 °F 32.5 °F 32.0 °F 75% 29.45 in 10.0 mi East 10.4 mph 17.3 mph N/A   Overcast
5:56 PM 39.2 °F 33.6 °F 32.0 °F 75% 29.44 in 10.0 mi ENE 8.1 mph - N/A   Overcast
6:16 PM 39.2 °F 32.0 °F 30.2 °F 70% 29.42 in 10.0 mi ENE 11.5 mph 16.1 mph N/A   Overcast
6:36 PM 39.2 °F 32.5 °F 32.0 °F 75% 29.41 in 10.0 mi NE 10.4 mph - N/A   Overcast
6:56 PM 39.2 °F 32.0 °F 33.8 °F 81% 29.40 in 10.0 mi NE 11.5 mph - N/A   Overcast
7:16 PM 39.2 °F 33.0 °F 32.0 °F 75% 29.40 in 10.0 mi NE 9.2 mph - N/A   Overcast
7:56 PM 37.4 °F 30.3 °F 30.2 °F 75% 29.38 in 10.0 mi NE 10.4 mph - N/A   Mostly Cloudy
8:36 PM 37.4 °F 29.8 °F 30.2 °F 75% 29.36 in 10.0 mi NE 11.5 mph - N/A   Mostly Cloudy
8:56 PM 37.4 °F 29.8 °F 30.2 °F 75% 29.35 in 10.0 mi East 11.5 mph 18.4 mph N/A   Mostly Cloudy
9:16 PM 39.2 °F 30.8 °F 28.4 °F 65% 29.35 in 10.0 mi East 15.0 mph 18.4 mph N/A   Mostly Cloudy
9:36 PM 39.2 °F 30.2 °F 28.4 °F 65% 29.35 in 10.0 mi East 17.3 mph - N/A   Mostly Cloudy
9:56 PM 37.4 °F 28.9 °F 28.4 °F 70% 29.35 in 10.0 mi East 13.8 mph - N/A   Partly Cloudy
10:16 PM 37.4 °F 28.5 °F 28.4 °F 70% 29.35 in 10.0 mi East 15.0 mph - N/A   Clear
10:36 PM 37.4 °F 29.8 °F 28.4 °F 70% 29.34 in 10.0 mi ENE 11.5 mph 19.6 mph N/A   Clear
10:56 PM 35.6 °F 28.6 °F 28.4 °F 75% 29.35 in 10.0 mi NE 9.2 mph - N/A   Clear
11:16 PM 35.6 °F 29.2 °F 28.4 °F 75% 29.35 in 10.0 mi NE 8.1 mph - N/A   Clear
11:36 PM 35.6 °F 29.2 °F 28.4 °F 75% 29.34 in 10.0 mi NE 8.1 mph - N/A   Clear
11:56 PM 35.6 °F 29.2 °F 28.4 °F 75% 29.34 in 10.0 mi East 8.1 mph - N/A   Clear